Date,TemperatureHighF,TemperatureAvgF,TemperatureLowF,DewpointHighF,DewpointAvgF,DewpointLowF,HumidityHigh,HumidityAvg,HumidityLow,PressureMaxIn,PressureMinIn,WindSpeedMaxMPH,WindSpeedAvgMPH,GustSpeedMaxMPH,PrecipitationSumIn
2013-2-1,17.8,13.6,10.8,13.6,8.1,5.8,87,78,68,30.38,29.90,25,7,26,0.00
2013-2-2,22.6,16.9,9.1,21.7,14.5,5.6,97,90,78,30.37,30.02,17,3,17,0.00
2013-2-3,22.3,19.3,15.8,20.9,16.0,12.3,96,87,75,30.10,29.92,17,3,18,0.00
2013-2-4,24.1,20.0,14.2,23.4,17.9,11.9,97,91,85,30.11,29.91,11,2,11,0.00
2013-2-5,28.2,25.4,23.0,25.8,23.6,22.0,99,93,80,29.99,29.89,11,1,11,0.00
2013-2-6,31.4,26.3,17.7,26.7,21.3,15.8,98,82,60,30.36,29.99,15,2,15,0.03
2013-2-7,46.7,32.9,20.0,33.0,25.6,15.7,86,74,56,30.33,29.92,11,2,11,0.02
2013-2-8,38.9,31.4,24.5,37.8,29.2,21.8,98,91,83,30.27,29.78,23,5,24,0.18
2013-2-9,33.9,26.0,22.1,23.8,21.0,19.0,93,81,63,30.46,30.26,15,2,19,0.00
2013-2-10,47.5,36.0,22.5,37.8,24.5,18.4,85,65,44,30.36,29.89,18,2,18,0.00
2013-2-11,52.9,42.9,34.3,46.9,37.1,26.4,99,80,63,29.94,29.69,31,8,31,0.00
2013-2-12,39.9,32.8,26.9,29.5,26.3,24.1,93,77,65,30.11,29.93,21,4,21,0.00
2013-2-13,33.7,28.2,23.1,29.2,25.8,22.4,97,90,82,29.95,29.75,11,1,11,0.00
2013-2-14,26.4,24.2,23.2,25.6,23.6,22.5,98,97,96,29.92,29.90,9,1,10,0.00
2013-2-15,36.4,31.1,24.2,29.6,25.6,21.3,96,80,65,30.12,30.02,17,3,17,0.00
2013-2-16,28.9,23.7,17.8,22.8,17.7,11.0,95,79,51,30.11,29.99,16,2,16,0.00
2013-2-17,21.4,16.7,10.9,15.7,11.6,8.3,94,80,61,30.31,30.02,19,4,20,0.00
2013-2-18,47.3,28.5,10.1,34.4,19.9,8.4,95,71,52,30.33,29.83,21,3,22,0.00
2013-2-19,47.6,32.1,16.8,39.9,28.1,13.5,98,85,59,30.01,29.65,36,8,36,0.21
2013-2-20,20.5,18.2,16.2,17.2,13.9,10.4,91,83,75,30.29,30.01,24,6,24,0.00
2013-2-21,23.6,20.3,18.3,17.4,15.8,13.9,93,82,73,30.41,30.26,14,3,15,0.00
2013-2-22,39.3,30.8,20.3,38.1,28.2,16.2,99,90,79,30.35,29.98,18,3,18,0.01
2013-2-23,38.9,34.5,26.3,34.4,30.4,24.1,94,85,71,30.02,29.89,12,2,12,0.00
2013-2-24,31.9,29.0,25.7,27.0,24.4,21.2,93,83,74,30.18,29.91,15,2,17,0.00
2013-2-25,42.0,32.7,21.7,29.1,26.1,21.0,99,77,57,30.26,30.07,12,2,12,0.00
2013-2-26,38.4,34.8,30.4,37.4,30.6,24.5,97,85,66,30.09,29.54,27,5,27,0.82
2013-2-27,40.5,37.2,32.7,39.5,36.1,31.1,99,95,87,29.68,29.52,23,4,23,0.26
2013-2-28,34.6,32.2,29.8,33.1,30.9,28.5,98,95,89,29.90,29.61,16,4,16,0.01